GW6365 Weather Reports


Display with metric or nautical units.
time (UTC)temp
F
wind
direction
speed
MPH
gust
MPH
rain 1hr
in
rain 24hr
in
rain mn
in
humidity
%
barometer
mb
20260504022101 83 236 10.0 20.0 0.00 0.00 0.00 70 997.7
20260504021601 83 294 12.0 20.0 0.00 0.00 0.00 70 997.7
20260504021103 83 332 11.0 19.0 0.00 0.00 0.00 70 997.7
20260504021001 83 293 10.0 19.0 0.00 0.00 0.00 69 997.6
20260504020601 83 273 13.0 20.0 0.00 0.00 0.00 70 997.6
20260504020001 83 296 11.0 20.0 0.00 0.00 0.00 71 997.4
20260504015604 83 306 11.0 22.0 0.00 0.00 0.00 71 997.3
20260504015000 83 238 14.0 22.0 0.00 0.00 0.00 71 997.2
20260504014604 83 238 11.0 17.0 0.00 0.00 0.00 71 997.2
20260504014059 83 254 10.0 21.0 0.00 0.00 0.00 70 997.3
20260504013600 83 229 13.0 20.0 0.00 0.00 0.00 69 997.2
20260504013501 83 232 12.0 18.0 0.00 0.00 0.00 69 997.2
20260504013101 83 288 10.0 16.0 0.00 0.00 0.00 70 997.3
20260504012603 83 278 11.0 20.0 0.00 0.00 0.00 70 997.3
20260504012100 83 251 10.0 20.0 0.00 0.00 0.00 70 997.3
20260504011501 83 263 11.0 20.0 0.00 0.00 0.00 70 997.1
20260504011059 83 263 12.0 20.0 0.00 0.00 0.00 69 997.1
20260504010503 83 278 9.0 16.0 0.00 0.00 0.00 69 997.0
20260504010100 83 273 9.0 17.0 0.00 0.00 0.00 71 997.0
20260504010002 83 296 8.0 17.0 0.00 0.00 0.00 71 997.0
20260504005600 84 273 9.0 17.0 0.00 0.00 0.00 70 997.0
20260504005501 84 239 9.0 16.0 0.00 0.00 0.00 70 997.0
20260504005100 84 211 10.0 17.0 0.00 0.00 0.00 70 996.8
20260504005001 84 219 10.0 17.0 0.00 0.00 0.00 70 996.8
20260504004600 84 225 8.0 21.0 0.00 0.00 0.00 70 996.8
20260504004059 84 252 11.0 21.0 0.00 0.00 0.00 69 996.8
20260504003559 84 290 9.0 17.0 0.00 0.00 0.00 69 996.8
20260504003502 84 271 10.0 18.0 0.00 0.00 0.00 69 996.9
20260504003100 84 285 9.0 18.0 0.00 0.00 0.00 68 996.6
20260504002600 84 240 8.0 18.0 0.00 0.00 0.00 69 996.5
20260504002100 84 249 12.0 18.0 0.00 0.00 0.00 68 996.7
20260504001602 84 267 10.0 18.0 0.00 0.00 0.00 68 996.9
20260504001501 84 264 11.0 18.0 0.00 0.00 0.00 68 996.7
20260504001100 84 227 11.0 17.0 0.00 0.00 0.00 67 997.0
20260504001001 84 265 10.0 17.0 0.00 0.00 0.00 67 996.8
20260504000601 84 269 9.0 17.0 0.00 0.00 0.00 67 996.8
20260504000105 84 277 9.0 15.0 0.00 0.00 0.00 65 996.9
20260503235559 85 277 6.0 15.0 0.00 0.00 0.00 67 996.8
20260503235102 85 236 10.0 18.0 0.00 0.00 0.00 67 996.8
20260503234628 85 299 12.0 19.0 0.00 0.00 0.00 67 996.6
20260503234103 85 236 10.0 19.0 0.00 0.00 0.00 65 996.5
20260503233559 85 281 9.0 21.0 0.00 0.00 0.00 65 996.4
20260503233059 85 281 10.0 21.0 0.00 0.00 0.00 66 996.4
20260503232559 85 232 10.0 22.0 0.00 0.00 0.00 66 996.5
20260503232059 85 244 10.0 19.0 0.00 0.00 0.00 67 996.5
20260503231559 85 105 10.0 20.0 0.00 0.00 0.00 66 996.5
20260503231100 85 264 12.0 20.0 0.00 0.00 0.00 66 996.5
20260503230602 85 285 10.0 19.0 0.00 0.00 0.00 67 996.5
20260503230059 86 262 11.0 19.0 0.00 0.00 0.00 66 996.4
20260503225559 86 246 11.0 18.0 0.00 0.00 0.00 64 996.4
20260503225059 87 273 9.0 17.0 0.00 0.00 0.00 64 996.6
20260503224659 87 271 8.0 17.0 0.00 0.00 0.00 62 996.6
20260503224102 87 251 7.0 18.0 0.00 0.00 0.00 62 996.6
20260503223559 86 286 10.0 18.0 0.00 0.00 0.00 62 996.5
20260503223059 86 248 11.0 18.0 0.00 0.00 0.00 58 996.6
20260503222600 87 261 9.0 18.0 0.00 0.00 0.00 64 996.7
20260503222059 87 209 10.0 18.0 0.00 0.00 0.00 64 996.6
20260503221601 86 224 11.0 18.0 0.00 0.00 0.00 62 996.7
20260503221059 86 259 11.0 18.0 0.00 0.00 0.00 62 996.8
20260503220559 87 257 10.0 19.0 0.00 0.00 0.00 63 996.8
20260503220059 87 238 9.0 19.0 0.00 0.00 0.00 62 996.9
20260503220002 86 286 10.0 19.0 0.00 0.00 0.00 62 996.9
20260503215600 87 286 8.0 18.0 0.00 0.00 0.00 65 996.9
20260503215100 87 261 10.0 18.0 0.00 0.00 0.00 64 996.8
20260503215001 87 272 8.0 18.0 0.00 0.00 0.00 64 996.8
20260503214600 87 263 9.0 18.0 0.00 0.00 0.00 64 996.9
20260503214502 87 274 8.0 18.0 0.00 0.00 0.00 65 997.0
20260503214100 87 246 11.0 18.0 0.00 0.00 0.00 64 996.9
20260503214002 87 280 11.0 21.0 0.00 0.00 0.00 63 997.0
20260503213600 86 253 11.0 21.0 0.00 0.00 0.00 65 997.0
20260503213002 87 272 11.0 17.0 0.00 0.00 0.00 63 997.1
20260503212502 87 239 10.0 17.0 0.00 0.00 0.00 63 997.2
20260503212100 87 269 9.0 17.0 0.00 0.00 0.00 63 997.1
20260503212001 87 281 10.0 17.0 0.00 0.00 0.00 64 997.1
20260503211500 87 232 8.0 15.0 0.00 0.00 0.00 66 997.2
20260503211100 87 290 7.0 17.0 0.00 0.00 0.00 66 997.2
20260503210600 86 244 11.0 17.0 0.00 0.00 0.00 67 997.4
20260503210104 87 271 9.0 18.0 0.00 0.00 0.00 67 997.3
20260503210002 87 355 11.0 18.0 0.00 0.00 0.00 67 997.4
20260503205600 87 245 10.0 18.0 0.00 0.00 0.00 67 997.3
20260503205100 87 289 8.0 20.0 0.00 0.00 0.00 68 997.6
20260503204600 87 256 9.0 20.0 0.00 0.00 0.00 68 997.6
20260503204058 87 282 9.0 17.0 0.00 0.00 0.00 65 997.7
20260503203559 87 324 9.0 18.0 0.00 0.00 0.00 66 997.7
20260503203100 87 259 8.0 18.0 0.00 0.00 0.00 65 997.7
20260503202559 87 252 8.0 18.0 0.00 0.00 0.00 64 997.8
20260503202100 87 267 9.0 13.0 0.00 0.00 0.00 66 997.8
20260503201600 87 309 7.0 15.0 0.00 0.00 0.00 66 997.8
20260503201103 87 240 9.0 18.0 0.00 0.00 0.00 66 997.9
20260503200558 87 282 9.0 18.0 0.00 0.00 0.00 66 998.0
20260503200059 87 264 9.0 17.0 0.00 0.00 0.00 66 998.1
20260503195603 88 240 7.0 16.0 0.00 0.00 0.00 64 998.0
20260503195100 87 300 8.0 16.0 0.00 0.00 0.00 66 998.1
20260503194603 87 298 7.0 15.0 0.00 0.00 0.00 67 998.1
20260503194059 87 261 8.0 15.0 0.00 0.00 0.00 63 998.2
20260503193559 86 259 7.0 15.0 0.00 0.00 0.00 66 998.3
20260503193059 86 238 6.0 15.0 0.00 0.00 0.00 67 998.5
20260503192559 87 244 7.0 16.0 0.00 0.00 0.00 67 998.5
20260503192059 87 250 7.0 15.0 0.00 0.00 0.00 67 998.6
20260503191603 87 242 9.0 15.0 0.00 0.00 0.00 66 998.7
20260503191103 87 251 8.0 15.0 0.00 0.00 0.00 67 998.5
20260503190600 87 215 7.0 16.0 0.00 0.00 0.00 67 998.7
20260503185559 87 295 9.0 16.0 0.00 0.00 0.00 65 998.7
20260503185103 87 245 8.0 16.0 0.00 0.00 0.00 63 998.9
20260503184600 87 202 6.0 17.0 0.00 0.00 0.00 62 998.9
20260503184100 87 248 9.0 17.0 0.00 0.00 0.00 63 999.1
20260503183559 87 244 7.0 15.0 0.00 0.00 0.00 58 999.2
20260503183100 87 209 5.0 16.0 0.00 0.00 0.00 59 999.2
20260503182559 87 208 8.0 16.0 0.00 0.00 0.00 62 999.2
20260503182059 87 247 8.0 15.0 0.00 0.00 0.00 61 999.3
20260503181600 87 207 9.0 16.0 0.00 0.00 0.00 60 999.5
20260503181059 86 279 7.0 16.0 0.00 0.00 0.00 63 999.6
20260503180559 86 269 7.0 14.0 0.00 0.00 0.00 58 999.6
20260503180107 86 292 10.0 14.0 0.00 0.00 0.00 59 999.5
20260503175558 87 242 9.0 14.0 0.00 0.00 0.00 57 999.6
20260503175059 87 286 7.0 12.0 0.00 0.00 0.00 60 999.8
20260503174601 87 267 9.0 12.0 0.00 0.00 0.00 58 999.9
20260503174101 87 292 6.0 12.0 0.00 0.00 0.00 59 1000.0
20260503173559 87 221 6.0 12.0 0.00 0.00 0.00 54 1000.1
20260503173111 87 261 6.0 11.0 0.00 0.00 0.00 55 1000.1
20260503172602 87 208 5.0 12.0 0.00 0.00 0.00 57 1000.2
20260503172059 87 273 6.0 10.0 0.00 0.00 0.00 57 1000.2
20260503171600 87 327 4.0 11.0 0.00 0.00 0.00 58 1000.3
20260503171100 88 195 6.0 12.0 0.00 0.00 0.00 56 1000.4
20260503170600 88 224 6.0 11.0 0.00 0.00 0.00 55 1000.5
20260503150558 86 271 0.0 4.0 0.00 0.00 0.00 51 1000.1
20260503140110 82 44 0.0 3.0 0.00 0.00 0.00 55 999.2
20260503131058 78 34 0.0 2.0 0.00 0.00 0.00 68 998.6
20260503130601 78 89 0.0 0.0 0.00 0.00 0.00 70 998.5
20260503110558 77 329 0.0 0.0 0.00 0.00 0.00 69 997.4
20260503110110 77 329 0.0 0.0 0.00 0.00 0.00 69 997.5
20260503090105 77 270 0.0 3.0 0.00 0.00 0.00 73 998.4
20260503081559 77 272 0.0 2.0 0.00 0.00 0.00 75 998.9
20260503081059 77 272 1.0 3.0 0.00 0.00 0.00 75 998.9
20260503080559 77 291 1.0 3.0 0.00 0.00 0.00 75 999.0
20260503072601 78 288 1.0 3.0 0.00 0.00 0.00 75 999.1
20260503072058 78 290 1.0 3.0 0.00 0.00 0.00 76 999.2
20260503071614 78 345 0.0 3.0 0.00 0.00 0.00 76 999.1
20260503071058 78 279 1.0 3.0 0.00 0.00 0.00 76 999.1
20260503070601 78 278 1.0 3.0 0.00 0.00 0.00 76 999.0
20260503060128 78 284 0.0 2.0 0.00 0.00 0.00 77 999.3
20260503055001 78 271 1.0 2.0 0.00 0.00 0.00 77 999.3
20260503054502 78 292 1.0 3.0 0.00 0.00 0.00 77 999.3
20260503054001 78 306 1.0 3.0 0.00 0.00 0.00 77 999.2
20260503053501 78 305 1.0 3.0 0.00 0.00 0.00 77 999.3
20260503053002 78 282 1.0 3.0 0.00 0.00 0.00 77 999.3
20260503052501 78 271 0.0 4.0 0.00 0.00 0.00 77 999.3
20260503052003 78 293 1.0 4.0 0.00 0.00 0.00 78 999.2
20260503051502 78 277 2.0 4.0 0.00 0.00 0.00 78 999.1
20260503051001 78 243 1.0 3.0 0.00 0.00 0.00 77 999.2
20260503050504 78 298 0.0 2.0 0.00 0.00 0.00 77 999.1
20260503050001 79 273 0.0 2.0 0.00 0.00 0.00 78 999.0
20260503045601 79 283 0.0 2.0 0.00 0.00 0.00 77 998.8
20260503045503 79 296 0.0 2.0 0.00 0.00 0.00 77 998.8
20260503045101 79 300 0.0 3.0 0.00 0.00 0.00 77 998.7
20260503044600 79 291 0.0 3.0 0.00 0.00 0.00 77 998.5
20260503044100 79 295 0.0 3.0 0.00 0.00 0.00 77 998.6
20260503043600 79 307 0.0 3.0 0.00 0.00 0.00 77 998.5
20260503043105 79 274 2.0 3.0 0.00 0.00 0.00 77 998.6
20260503042602 79 291 2.0 3.0 0.00 0.00 0.00 77 998.5
20260503042100 79 276 1.0 3.0 0.00 0.00 0.00 77 998.4
20260503041600 79 280 0.0 3.0 0.00 0.00 0.00 77 998.4
20260503041059 79 252 0.0 3.0 0.00 0.00 0.00 77 998.3
20260503040600 79 270 0.0 2.0 0.00 0.00 0.00 77 998.1
20260503040002 79 292 0.0 0.0 0.00 0.00 0.00 77 998.2
20260503035600 79 323 0.0 3.0 0.00 0.00 0.00 77 998.1
20260503035100 79 286 0.0 3.0 0.00 0.00 0.00 77 998.2
20260503034600 79 284 0.0 4.0 0.00 0.00 0.00 77 998.1
20260503034101 79 277 2.0 4.0 0.00 0.00 0.00 76 998.1
20260503033600 80 287 1.0 4.0 0.00 0.00 0.00 76 998.1
20260503033104 80 292 2.0 4.0 0.00 0.00 0.00 76 998.1
20260503032600 80 290 1.0 3.0 0.00 0.00 0.00 75 998.2
20260503032101 81 268 1.0 3.0 0.00 0.00 0.00 75 998.1
20260503031607 81 276 0.0 2.0 0.00 0.00 0.00 74 998.1
20260503031101 82 294 0.0 2.0 0.00 0.00 0.00 73 998.0
20260503030600 82 261 0.0 1.0 0.00 0.00 0.00 72 997.9
20260503030101 82 92 0.0 0.0 0.00 0.00 0.00 71 997.8
20260503030002 82 92 0.0 0.0 0.00 0.00 0.00 70 997.8
20260503025600 82 71 0.0 0.0 0.00 0.00 0.00 70 997.7
20260503025059 82 70 0.0 0.0 0.00 0.00 0.00 70 997.5
20260503024600 82 355 0.0 0.0 0.00 0.00 0.00 71 997.4
20260503024100 82 44 0.0 4.0 0.00 0.00 0.00 71 997.3
20260503023559 82 79 0.0 3.0 0.00 0.00 0.00 71 997.3
20260503023100 82 300 0.0 3.0 0.00 0.00 0.00 72 997.2
20260503023001 82 300 0.0 3.0 0.00 0.00 0.00 72 997.2
20260503022600 82 45 0.0 3.0 0.00 0.00 0.00 71 997.1